Location: Alto Pass Reservoir
(37.5801°N, 89.3084°W)
Time: 03:17:43
(UTC+00:00)

Cosmos 2298 Rocket - Visible Passes

Search period start: 05 July 2022 00:00
Search period end: 15 July 2022 00:00
Orbit: 775 x 784 km, 74.0° (Epoch: 04 July)

Date Brightness Start Highest point End Pass type
(mag) Time Alt. Az. Time Alt. Az. Time Alt. Az.
05 Jul 5.4 08:30:00 10° N 08:34:59 39° ENE 08:39:57 10° SE visible
06 Jul 6.1 07:56:51 10° N 08:01:14 25° ENE 08:05:35 10° ESE visible
06 Jul 4.6 09:38:44 10° NW 09:43:36 37° W 09:48:26 10° SSW visible
07 Jul 6.7 07:24:04 10° NNE 07:27:23 16° ENE 07:30:40 10° E visible
07 Jul 4.0 09:04:52 10° NNW 09:10:07 61° WSW 09:15:21 10° S visible
08 Jul 7.0 06:52:46 10° NE 06:53:26 10° NE 06:54:05 10° ENE visible
08 Jul 4.0 08:31:13 10° NNW 08:36:34 83° ENE 08:41:06 15° SSE visible
09 Jul 4.8 07:57:45 10° N 08:02:58 51° ENE 08:06:44 18° SE visible
09 Jul 5.5 09:41:23 10° NW 09:44:46 17° W 09:47:09 13° SW visible
10 Jul 5.6 07:24:28 10° N 07:29:15 32° ENE 07:32:35 17° ESE visible
10 Jul 5.0 09:06:56 10° NW 09:11:24 28° W 09:13:01 24° SW visible
11 Jul 6.2 06:51:28 10° NNE 06:55:27 21° ENE 06:58:37 13° ESE visible
11 Jul 4.3 08:32:54 10° NNW 08:37:59 46° WSW 08:39:03 40° SW visible
12 Jul 6.6 06:18:59 10° NNE 06:21:33 13° ENE 06:24:06 10° E visible
12 Jul 3.9 07:59:08 10° NNW 08:04:28 76° WSW 08:05:14 63° SSW visible
13 Jul 4.2 07:25:34 10° NNW 07:30:53 67° ENE 07:31:30 61° ESE visible
13 Jul 5.9 09:10:15 10° WNW 09:11:57 13° W 09:11:57 13° W visible
14 Jul 4.9 06:52:11 10° N 06:57:14 41° ENE 06:57:52 40° E visible
14 Jul 5.5 08:35:14 10° NW 08:38:19 21° W 08:38:19 21° W visible
